Tracking 30986 objects as of 9-Jul-2025
HD Live streaming from Space Station
objects crossing your sky now

CZ-6A DEB

Track CZ-6A DEB now!
10-day predictions


NORAD ID: 54983
Int'l Code: 2022-151TY
Perigee: 834.3 km
Apogee: 1,224.5 km
Inclination: 98.9 °
Period: 105.6 minutes
Semi major axis: 7400 km
RCS: Unknown
Launch date: November 11, 2022
Source: People's Republic of China (PRC)
Launch site: Taiyaun Space Center, China (TSC)

Note: This is SATELLITE DEBRIS
Your satellite tracking list
Your tracking list is empty




NASA's NSSDC Master Catalog

Two Line Element Set (TLE):
1 54983U 22151TY  25189.75573068  .00000081  00000-0  11875-3 0  9990
2 54983  98.8993 123.7719 0263617  56.7372 305.8735 13.63699798130918
Source of the keplerian elements: AFSPC